GLOBALSTAR M004 DEB, 43356

Orbit data source: Space-Track

GLOBALSTAR M004 DEB, 43356 is space debris in LEO originally from a launch on Sat, 14 Feb 1998 UTC launched from the Air Force Eastern Test Range (AFETR). Debris objects in space refer to the collection of defunct objects orbiting the Earth. Examples of debris include non-operational satellites, rocket bodies, and fragments generated from explosions, collisions, or faulty payload assembly.

Loading next visibility...
GLOBALSTAR M004 DEB details
Identifier
43356, 1998-008G
Orbit
LEO
Last TLE update2 days ago
Origin
Flag of USBoeing/HB (US)
ManufacturerUnknown
MissionSpacecraft
Bus & MotorUnknown
MassUnknown
Launch date (UTC)
1998-02-14 (27 years ago)
Launch vehicleUnknown
Launch site
Air Force Eastern Test Range (AFETR)
Object type
Payload
Rocket body
Debris
Shape & HBRUnknown
Radar Cross SectionSmall (<0.1 m²)

Expand to show TLE details & history

TLE from 2 days ago
0 GLOBALSTAR M004 DEB
1 43356U 98008G   24345.42365659  .00001109  00000-0  55101-2 0  9999
2 43356  51.9050  33.8544 0034336  61.7336 298.6995 12.77557818414474
Epoch: 2024-12-10T10:10Z
Definitive object data (Epoch: 2024-12-10T10:10:03.929Z)
Latitude-0.00004°
Longitude161.7051°
Altitude1,339.308 km
Speed7.195 km/s
True Right ascension02h 15m 25s
True Declination0° 00' 00"
Sunlit
Object was in full shadow at TLE epoch
Visualization TLE readout
Latitude-20.15768°
Longitude-6.45976°
Altitude1,377.166 km
Speed7.161 km/s
Apparent Right ascension12h 52m 09s
Apparent Declination-36° 36' 40"
Sunlit
Object is in daylight
Visualization observer readout
Local Sidereal Time21:18:51
Azimuth256.902° W
Elevation-48.623°
Doppler factor1
Orbital elements
Apogee altitude1,378.255 km
Perigee altitude1,325.173 km
Semi-major axis7,729.851 km
Eccentricity0.0034336
Inclination51.905°
RAAN33.8544°
Arg. of periapsis61.7336°
True anomaly298.35366°
Mean anomaly298.6995°
Eccentric anomaly298.52665°
Mean motion3.19364 °/min
BSTAR0.0055101
Orbital period112.72 mins
Loading maneuver chart data...
Loading historical data...
Loading historical data...
Loading historical data...
Loading historical data...
Loading historical data...
Loading historical data...
Loading historical data...

GLOBALSTAR M004 DEB Visibility forecast

Observer location: undefined°, undefined

Span
Click to sort rows by Start time (UTC) header in descending order
Start Az.
Max El. time (UTC)
Max El. Az.
Max El.
End time (UTC)
End Az.
8 mins2024-12-12 03:35:45.433Z148.973° SSE2024-12-12 03:39:45.433Z118.289° SE15.029°2024-12-12 03:43:45.433Z87.984° E
14 mins2024-12-12 05:29:45.433Z214.178° SW2024-12-12 05:36:45.433Z130.945° SE42.565°2024-12-12 05:43:45.433Z57.22° ENE
14 mins2024-12-12 07:28:45.433Z267.066° W2024-12-12 07:34:45.433Z326.679° NNW36.97°2024-12-12 07:42:45.433Z50.151° ENE
13 mins2024-12-12 09:28:45.433Z301.587° NW2024-12-12 09:34:45.433Z356.407° N30.253°2024-12-12 09:41:45.433Z63.728° ENE
14 mins2024-12-12 11:28:45.433Z314.077° NW2024-12-12 11:34:45.433Z22.187° NNE39.657°2024-12-12 11:42:45.433Z104.106° ESE
14 mins2024-12-12 13:26:45.433Z298.153° NW2024-12-12 13:32:45.433Z239.879° WSW38.848°2024-12-12 13:40:45.433Z154.056° SSE
|